DW7302 Weather Reports


Display with metric or nautical units.
time (UTC)temp
F
wind
direction
speed
MPH
gust
MPH
rain 1hr
in
rain 24hr
in
rain mn
in
humidity
%
barometer
mb
20190216024710 15 69 4.0 8.0 0.00 0.00 0.00 85 1018.9
20190216023019 15 63 0.0 7.0 0.00 0.00 0.00 85 1018.9
20190216021646 15 32 1.0 8.0 0.00 0.00 0.00 85 1018.8
20190216013115 15 67 1.0 8.0 0.00 0.00 0.00 84 1018.5
20190216010141 15 355 3.0 10.0 0.00 0.00 0.00 83 1018.1
20190216003135 15 79 4.0 6.0 0.00 0.00 0.00 83 1017.3
20190216000122 15 51 3.0 9.0 0.00 0.00 0.00 82 1016.7
20190215231522 16 37 2.0 6.0 0.00 0.00 0.00 81 1016.4
20190215230148 16 13 1.0 9.0 0.00 0.00 0.00 81 1016.2
20190215223141 16 18 3.0 8.0 0.00 0.00 0.00 80 1015.5
20190215220233 16 338 4.0 8.0 0.00 0.00 0.00 79 1015.6
20190215213205 16 63 5.0 10.0 0.00 0.00 0.00 79 1015.2
20190215210249 16 63 5.0 10.0 0.00 0.00 0.00 80 1014.7
20190215203101 17 49 3.0 10.0 0.00 0.00 0.00 81 1014.1
20190215200114 17 22 3.0 9.0 0.00 0.00 0.00 82 1013.9
20190215194535 17 330 6.0 10.0 0.00 0.00 0.00 83 1013.5
20190215193217 17 39 4.0 12.0 0.00 0.00 0.00 82 1013.5
20190215191511 17 46 4.0 11.0 0.00 0.00 0.00 82 1014.0
20190215190122 17 349 1.0 12.0 0.00 0.00 0.00 82 1014.0
20190215183215 17 62 4.0 9.0 0.00 0.00 0.00 82 1014.2
20190215181505 17 57 3.0 10.0 0.00 0.00 0.00 82 1014.3
20190215180234 17 96 5.0 10.0 0.00 0.00 0.00 82 1014.6
20190215174534 17 37 4.0 10.0 0.00 0.00 0.00 82 1014.9
20190215171538 17 65 1.0 7.0 0.00 0.00 0.00 84 1015.0
20190215170159 17 8 2.0 7.0 0.00 0.00 0.00 83 1015.0
20190215164503 17 4 3.0 8.0 0.00 0.00 0.00 84 1014.2
20190215163253 17 75 3.0 6.0 0.00 0.00 0.00 84 1013.9
20190215160210 17 22 4.0 7.0 0.00 0.00 0.00 84 1014.1
20190215154522 17 53 2.0 6.0 0.00 0.00 0.00 85 1013.9
20190215153207 17 79 3.0 10.0 0.00 0.00 0.00 83 1013.4
20190215151535 17 56 2.0 7.0 0.00 0.00 0.00 85 1013.0
20190215150145 17 30 2.0 9.0 0.00 0.00 0.00 84 1012.8
20190215143107 18 63 2.0 8.0 0.00 0.00 0.00 83 1012.5
20190215140113 18 75 2.0 5.0 0.00 0.00 0.00 81 1011.8
20190215134506 18 30 2.0 11.0 0.00 0.00 0.00 76 1011.7
20190215133117 18 70 2.0 9.0 0.00 0.00 0.00 76 1011.3
20190215130237 19 11 0.0 6.0 0.00 0.00 0.00 75 1011.6
20190215124542 19 75 0.0 9.0 0.00 0.00 0.00 75 1011.8
20190215121621 19 69 3.0 11.0 0.00 0.00 0.00 72 1010.5
20190215120021 20 79 3.0 9.0 0.00 0.00 0.00 68 1010.9
20190215113155 21 78 0.0 5.0 0.00 0.00 0.00 69 1012.6
20190215111509 21 41 0.0 5.0 0.00 0.00 0.00 68 1012.6
20190215110132 21 46 4.0 11.0 0.00 0.00 0.00 67 1012.0
20190215103207 21 71 1.0 6.0 0.00 0.00 0.00 67 1011.5
20190215100108 21 5 0.0 7.0 0.00 0.00 0.00 69 1011.6
20190215093118 22 68 1.0 9.0 0.00 0.00 0.00 68 1012.2
20190215090147 23 37 2.0 8.0 0.00 0.00 0.00 67 1011.9
20190215083139 23 67 2.0 10.0 0.00 0.00 0.00 74 1012.7
20190215080152 24 41 3.0 13.0 0.00 0.00 0.00 73 1012.1
20190215074511 24 63 4.0 9.0 0.00 0.00 0.00 72 1012.0
20190215073109 24 47 4.0 10.0 0.00 0.00 0.00 71 1012.3
20190215070120 25 349 2.0 8.0 0.00 0.00 0.00 71 1013.6
20190215064521 25 46 3.0 9.0 0.00 0.00 0.00 70 1013.7
20190215061605 25 60 2.0 9.0 0.00 0.00 0.00 71 1012.6
20190215060003 25 60 1.0 8.0 0.00 0.00 0.00 71 1013.4
20190215053106 26 62 1.0 7.0 0.00 0.00 0.00 72 1013.2
20190215050122 26 41 0.0 5.0 0.00 0.00 0.00 73 1013.7
20190215043136 26 32 2.0 8.0 0.00 0.00 0.00 71 1013.3
20190215040206 27 41 3.0 9.0 0.00 0.00 0.00 70 1013.0
20190215033100 28 13 1.0 5.0 0.00 0.00 0.00 71 1013.5
20190215030128 29 6 1.0 4.0 0.00 0.00 0.00 70 1013.4